Blue Canyon, CA

7:03 PM PDT on July 26, 2017 (GMT -0700)
Blue Canyon-Nyack

Weather History for KBLU - October, 2012

Change the Weather History Date:

Tuesday, October 16, 2012

  Actual Average Record
Temperature  
Mean Temperature 62 °F -  
Max Temperature 69 °F 61 °F 80 °F (1959)
Min Temperature 57 °F 45 °F 25 °F (1971)
Degree Days  
Heating Degree Days 2    
Growing Degree Days 12 (Base 50)    
Moisture  
Dew Point 45 °F    
Average Humidity 55    
Maximum Humidity 69    
Minimum Humidity 37    
Precipitation  
Precipitation 0.00 in - - ()
Sea Level Pressure  
Sea Level Pressure 29.94 in    
Wind  
Wind Speed 4 mph (NW)    
Max Wind Speed 12 mph    
Max Gust Speed 18 mph    
Visibility 10 miles    
Events      
Averages and records for this station are not official NWS values.
T = Trace of Precipitation, MM = Missing Value Source: NWS Daily Summary

Daily Weather History Graph

Daily Weather History Graph

Search for Another Location

Airport or City:

Trip Planner

Search our weather history database for the weather conditions in past years. The results will help you decide how hot, cold, wet, or windy it might be!

Date:

Astronomy

Oct. 16, 2012 Rise Set
Actual Time 7:14 AM PDT 6:21 PM PDT
Civil Twilight 6:47 AM PDT 6:48 PM PDT
Nautical Twilight 6:16 AM PDT 7:19 PM PDT
Astronomical Twilight 5:45 AM PDT 7:50 PM PDT
Moon 8:42 AM PDT (10/16) 7:11 PM PDT (10/16)
Length of Visible Light 12h 01m
Length of Day
11h 07m
New Moon, 2% of the Moon is Illuminated
Oct 16
New Moon
Oct 21
First Quarter
Oct 29
Full
Nov 6
Last Quarter
Nov 13
New

Hourly Weather History & Observations

Time (PDT) Temp. Dew Point Humidity Pressure Visibility Wind Dir Wind Speed Gust Speed Precip Events Conditions
12:52 AM 61.0 °F 45.0 °F 56% 29.93 in 10.0 mi NNE 3.5 mph - N/A   Clear
1:52 AM 59.0 °F 42.1 °F 53% 29.94 in 10.0 mi NE 3.5 mph - N/A   Clear
2:52 AM 59.0 °F 46.4 °F 63% 30.18 in 10.0 mi Calm Calm - N/A   Clear
3:52 AM 59.0 °F 46.0 °F 62% 29.94 in 10.0 mi Calm Calm - N/A   Clear
4:52 AM 59.0 °F 46.0 °F 62% 29.93 in 10.0 mi Calm Calm - N/A   Clear
5:52 AM 57.0 °F 46.0 °F 67% 29.94 in 10.0 mi East 3.5 mph - N/A   Clear
6:52 AM 57.0 °F 46.9 °F 69% 29.96 in 10.0 mi Calm Calm - N/A   Clear
7:52 AM 59.0 °F 46.9 °F 64% 29.97 in 10.0 mi WNW 3.5 mph - N/A   Clear
8:52 AM 61.0 °F 48.0 °F 62% 29.97 in 10.0 mi Calm Calm - N/A   Partly Cloudy
9:52 AM 62.1 °F 48.0 °F 60% 29.98 in 10.0 mi West 3.5 mph - N/A   Clear
10:52 AM 64.0 °F 48.9 °F 58% 29.97 in 10.0 mi SW 6.9 mph - N/A   Clear
11:52 AM 64.0 °F 48.9 °F 58% 29.95 in 10.0 mi Variable 3.5 mph - N/A   Clear
12:52 PM 66.0 °F 50.0 °F 56% 29.94 in 10.0 mi WSW 6.9 mph - N/A   Mostly Cloudy
1:52 PM 66.9 °F 48.9 °F 52% 29.91 in 10.0 mi West 8.1 mph - N/A   Scattered Clouds
2:52 PM 68.0 °F 41.0 °F 37% 29.89 in 10.0 mi West 11.5 mph 16.1 mph N/A   Clear
3:52 PM 68.0 °F 44.1 °F 42% 29.89 in 10.0 mi Variable 6.9 mph - N/A   Clear
4:52 PM 66.0 °F 44.1 °F 45% 29.89 in 10.0 mi West 6.9 mph - N/A   Clear
5:52 PM 64.0 °F 46.0 °F 52% 29.90 in 10.0 mi West 4.6 mph - N/A   Clear
6:52 PM 61.0 °F 45.0 °F 56% 29.91 in 10.0 mi NW 5.8 mph - N/A   Clear
7:52 PM 57.9 °F 43.0 °F 58% 29.92 in 10.0 mi NNW 4.6 mph - N/A   Clear
8:52 PM 57.9 °F 45.0 °F 62% 29.92 in 10.0 mi NNE 4.6 mph - N/A   Clear
9:52 PM 59.0 °F 43.0 °F 55% 29.90 in 10.0 mi NE 4.6 mph - N/A   Clear
10:52 PM 57.9 °F 34.0 °F 41% 29.89 in 10.0 mi NE 6.9 mph - N/A   Clear
11:52 PM 57.9 °F 33.1 °F 39% 29.89 in 10.0 mi NE 10.4 mph 18.4 mph N/A   Clear